This is the latest recevied weather packets stored in our database for station/object YN1JLX-13. If no packets are shown the sender has not sent any weather packets the latest 10 day(s).
| Time | Temp. | Humidity | Pressure | Rain* | Wind** | Luminosity | Snow |
|---|---|---|---|---|---|---|---|
| 1777823610 | 25° C | 58% | 1013 hPa | 0 mm | - | - | - |
| 1777823009 | 25° C | 58% | 1013 hPa | 0 mm | - | - | - |
| 1777822409 | 26.11° C | 58% | 1013 hPa | 0 mm | - | - | - |
| 1777821809 | 22.78° C | 67% | 1013 hPa | 0 mm | - | - | - |
| 1777821208 | 22.78° C | 67% | 1013 hPa | 0 mm | - | - | - |
| 1777820608 | 23.33° C | 67% | 1013 hPa | 0 mm | - | - | - |
| 1777820007 | 23.33° C | 67% | 1013 hPa | 0 mm | - | - | - |
| 1777819407 | 23.33° C | 67% | 1013 hPa | 0 mm | - | - | - |
| 1777818807 | 23.33° C | 66% | 1013 hPa | 0 mm | - | - | - |
| 1777818206 | 21.67° C | 69% | 1013 hPa | 0 mm | - | - | - |
| 1777817606 | 21.67° C | 67% | 1013 hPa | 0 mm | - | - | - |
| 1777817005 | 22.78° C | 67% | 1013 hPa | 0 mm | - | - | - |
| 1777816405 | 21.67° C | 70% | 1013 hPa | 0 mm | - | - | - |
| 1777815805 | 22.78° C | 70% | 1013 hPa | 0 mm | - | - | - |
| 1777815204 | 21.67° C | 74% | 1013 hPa | 0 mm | - | - | - |
| 1777814604 | 19.44° C | 77% | 1013 hPa | 0 mm | - | - | - |
| 1777814004 | 20.56° C | 77% | 1013 hPa | 0 mm | - | - | - |
| 1777813404 | 20° C | 77% | 1013 hPa | 0 mm | - | - | - |
| 1777812803 | 20° C | 76% | 1013 hPa | 0 mm | - | - | - |
| 1777812203 | 21.11° C | 76% | 1013 hPa | 0 mm | - | - | - |
| 1777811603 | 21.11° C | 76% | 1013 hPa | 0 mm | - | - | - |
| 1777811002 | 18.89° C | 77% | 1012 hPa | 0 mm | - | - | - |
| 1777810402 | 18.33° C | 77% | 1012 hPa | 0 mm | - | - | - |
| 1777809802 | 19.44° C | 77% | 1012 hPa | 0 mm | - | - | - |
| 1777809201 | 20° C | 77% | 1012 hPa | 0 mm | - | - | - |
* Rain latest hour (hover to see other rain measurements)
** Current wind speed in m/s (hover to see current wind gust speed)